www.pogodaiklimat.ru

Погода и климат >> Архив погоды >> Аргентина >> Формоса


ПОГОДА в Формосе

  • Прогноз погоды в Формосе
  • Монитор погоды в Формосе

АРХИВ ПОГОДЫ в Формосе

Время (UTC), дата Ветер
(напр.,м/с)
 
Видим.   Явления Облачность Т
(С)
Тd
(С)
f
(%)
Тe
(С)
Тes
(С)
Комфортность P
(гПа)
Po
(гПа)
Тmin
(С)
Tmax
(С)
R
(мм)
R24
(мм)
S
(см)
18 11.04 Ю 5 20 км 8/8 750 м
[Cu Sc]
+27.3 +20.9 68 +34 +35 очень
душно
1014.6 1007.6
21 11.04 Ю 3 20 км 3/3 600 м
[Sc Ci sp]
+27.5 +20.4 65 +34 +34 очень
душно
1013.6 1006.6
00 12.04 Ю 2 20 км 8/6 600 м
[Sc Ci sp]
+24.8 +20.4 77 +31 +31 очень
душно
1014.9 1007.8 +23.0 +30.8
03 12.04 Ю 4 20 км 4/3 600 м
[Sc Ac As]
+22.4 +17.8 75 +27 +27 душно 1015.6 1008.6
06 12.04 Ю 4 20 км 6/0
[Ac As]
+20.4 +17.2 82 +24 +24 комфорт 1015.4 1008.4
09 12.04 Ю 4 20 км 3/1 600 м
[Sc Ac As]
+17.8 +17.0 95 +18 +18 1015.8 1008.8
12 12.04 ЮВ 4 20 км 5/0
[Ci]
+19.1 +16.1 83 +21 +23 комфорт 1017.0 1010.0 +16.8 +24.8
15 12.04 Ю 3 20 км ясно +24.1 +16.5 63 +28 +39 душно 1016.2 1009.2
18 12.04 ЮВ 3 20 км 3/0
[Ac trans]
+27.3 +15.1 47 +30 +37 душно 1013.4 1006.4
21 12.04 Ю 3 20 км ясно +25.1 +13.3 48 +27 +27 жарко 1012.5 1005.4
00 13.04 Ю 3 20 км 4/0
[Ac trans]
+18.7 +16.2 85 +20 +20 1013.1 1006.0 +18.7 +27.8
03 13.04 ЮВ 2 20 км ясно +17.3 +16.1 93 +18 +18 1012.9 1005.8
06 13.04 В 2 20 км ясно +17.5 +16.3 93 +18 +18 1012.5 1005.4
09 13.04 В 3 20 км ясно +17.4 +15.9 91 +18 +18 1011.7 1004.6
12 13.04 ЮВ 3 20 км ясно +20.5 +16.4 77 +24 +27 комфорт 1012.8 1005.8 +16.1 +20.5
15 13.04 В 3 20 км 8/8
[Cb calv Ac cuf]
+25.6 +18.1 63 +30 +32 душно 1012.2 1005.2
18 13.04 В 4 20 км 10/0
[Ac As Cs]
+29.1 +19.7 57 +35 +38 очень
душно
1009.6 1002.6
21 13.04 В 2 20 км 8/0
[Ac As Cs]
+28.1 +21.6 68 +36 +36 очень
душно
1008.3 1001.4
00 14.04 ЮВ 2 20 км 9/0
[Ac trans]
+24.5 +22.4 88 +32 +32 очень
душно
1009.5 1002.5 +20.5 +30.0
03 14.04 В 2 20 км 3/0
[Ac As]
+23.2 +21.6 91 +31 +31 очень
душно
1010.2 1003.3
06 14.04 ЮВ 1 20 км ясно +22.0 +20.9 93 +28 +28 душно 1009.8 1002.9
09 14.04 В 2 20 км ясно +21.5 +20.9 96 +27 +27 душно 1010.0 1003.0
12 14.04 В 2 20 км 3/1 750 м
[Sc Ac As]
+24.5 +22.1 86 +32 +34 очень
душно
1012.0 1005.0 +20.7 +24.5
15 14.04 СВ 3 20 км ясно +32.5 +23.7 60 +44 +55 опасность
перегрева
1012.4 1005.4
18 14.04 ЮВ 2 20 км 4/4 750 м
[Cu Sc]
+32.9 +23.4 57 +43 +50 опасность
перегрева
1010.3 1003.4
21 14.04 ЮВ 1 20 км 3/1 750 м
[Cu Sc Ci sp]
+32.1 +22.9 58 +42 +42 опасность
перегрева
1010.1 1003.2
00 15.04 ЮВ 3 20 км ясно +26.7 +23.2 81 +36 +36 очень
душно
1011.6 1004.6 +24.5 +34.8
03 15.04 В 2 20 км ясно +25.1 +22.9 88 +33 +33 очень
душно
1012.1 1005.3
06 15.04 штиль 0 20 км 4/0
[Cs]
+23.5 +22.9 96 +31 +31 очень
душно
1012.5 1005.7
09 15.04 штиль 0 8000 м дымка 3/0
[Cs]
+22.2 +22.1 99 +29 +29 очень
душно
1012.7 1005.8
12 15.04 В 2 6000 м дымка 9/0
[Ac As]
+24.3 +23.0 92 +32 +33 очень
душно
1014.5 1007.6 +21.9 +26.7
15 15.04 В 5 20 км 9/0
[Ac As]
+30.7 +23.6 66 +42 +45 опасность
перегрева
1013.7 1006.8
18 15.04 В 3 20 км 8/0
[Ac As]
+30.5 +24.3 70 +43 +46 опасность
перегрева
1011.4 1004.5
21 15.04 Ю 3 20 км 8/5 750 м
[Cu Sc Ac As]
+28.1 +24.1 79 +39 +39 очень
душно
1012.2 1005.3
00 16.04 Ю 2 20 км 9/3 750 м
[Cu Sc Ac As Cs]
+26.8 +23.8 84 +37 +37 очень
душно
1014.5 1007.6 +24.3 +31.6
03 16.04 ЮВ 3 20 км в посл. час гроза 9/1 750 м
[Sc Ac As Cs]
+22.5 +20.7 90 +29 +29 очень
душно
1015.5 1008.6
06 16.04 Ю 3 20 км {гроза} 8/0
[Cs]
+20.9 +19.7 93 +26 +26 душно 1015.4 1008.5
09 16.04 Ю 3 20 км 4/0
[Cs]
+19.5 +18.9 96 +22 +22 комфорт 1016.5 1009.4
12 16.04 Ю 3 20 км 10/10 240 м
[St]
+20.2 +18.6 91 +24 +24 комфорт 1018.3 1011.3 +18.9 +26.8
15 16.04 ЮЗ 4 20 км 10/10 400 м
[Sc]
+21.6 +17.9 79 +26 +26 душно 1018.5 1011.4
18 16.04 Ю 3 20 км 9/9 750 м
[Sc]
+23.8 +17.4 67 +28 +29 душно 1016.4 1009.4
21 16.04 Ю 4 20 км 4/4 600 м
[Sc]
+23.4 +17.5 69 +29 +29 душно 1015.0 1008.0
00 17.04 ЮВ 3 20 км ясно +18.8 +16.8 88 +20 +20 1015.1 1008.0 +18.8 +24.9
03 17.04 Ю 3 20 км ясно +17.5 +16.3 93 +18 +18 1015.3 1008.2
06 17.04 З 1 20 км 5/5 450 м
[Sc]
+16.0 +15.7 98 +17 +17 1014.9 1007.8
09 17.04 Ю 3 20 км 1/1 540 м
[Sc]
+15.2 +15.0 99 +14 +14 1014.0 1006.9
12 17.04 ЮВ 3 800 м туман 10/10 240 м
[St]
+18.3 +18.3 100 +19 +19 1015.7 1008.6 +14.1 +18.8
15 17.04 В 3 20 км {туман} 10/10 450 м
[Sc]
+20.6 +17.6 83 +25 +25 комфорт 1016.1 1009.0
18 17.04 ЮВ 2 20 км {туман} 1/0
[Ci fib]
+26.3 +17.3 58 +30 +40 душно 1012.5 1005.4
21 17.04 Ю 3 20 км ясно +25.7 +18.2 63 +30 +30 душно 1011.9 1004.9
00 18.04 В 2 20 км ясно +20.8 +17.9 83 +25 +25 комфорт 1012.9 1005.8 +18.3 +27.1
03 18.04 ЮЗ 1 20 км ясно +17.7 +16.9 95 +19 +19 1013.7 1006.6
06 18.04 Ю 2 20 км ясно +17.5 +16.7 95 +18 +18 1012.8 1005.8
09 18.04 Ю 2 20 км ясно +16.0 +15.8 99 +16 +16 1012.7 1005.7
12 18.04 В 2 20 км ясно +22.0 +18.5 81 +27 +30 душно 1013.6 1006.6 +15.4 +22.0

 

Местоположение метеостанции Формоса (Аргентина): широта -26.20 долгота -58.23 высота над уровнем моря 60 м.

В архиве по умолчанию представлена погода в Формосе за последнюю неделю. Архивные данные за месяц целиком и за предыдущие месяцы, начиная с января 2011 года, Вы можете получить, выбрав интересующий диапазон дат из раскрывающегося списка и нажав кнопку "Ввод!".


*Определитесь, кто Вы:
робот инопланетянин человек

Внимание! Время в таблицах - всемирное. Для получения местного времени необходимо прибавить поправку, которая равна -3 ч.

Смотрите также архив погоды в соседних городах и на ближайших метеорологических станциях:

Погода в Пиларе (Парагвай) (73 км)
Погода в Сан Хуан Батистута (Парагвай) (119 км)
Погода в Куйкуйо (Парагвай) (125 км)
Погода в Парагуари (Парагвай) (127 км)
Погода в Асунсьоне (Парагвай) (128 км)
Погода в Корриентесе (Аргентина) (149 км)
Погода в Ресистенсии (Аргентина) (161 км)
Погода в Грал Бругуез (Парагвай) (171 км)
Погода в Вильяррике (Парагвай) (187 км)
Погода в Каасапе (Парагвай) (188 км)

Пояснения к столбцам:

Ветер - указаны скорость ветра в м/с - средняя за 10 мин, порывы в срок и между сроками (в фигурных скобках) и направление, откуда дует ветер: С - северный, СВ - северо-восточный, В - восточный, ЮВ - юго-восточный, Ю - южный, ЮЗ - юго-западный, З - западный, СЗ - северо-западный.
Видимость - горизонтальная дальность видимости в метрах или километрах. При видимости от 1 до 10 км при отсутствии осадков обычно наблюдается дымка, при ухудшении видимости до 1 км и менее - туман. В сухую погоду видимость может ухудшаться дымом, пылью или мглою.
Явления - указаны атмосферные явления, наблюдавшиеся в срок или в последний час перед сроком; фигурными скобками обозначены явления, наблюдавшиеся между сроками (за 1-3 часа до срока); квадратными скобками обозначены град или гололедные отложения с указанием их диаметра в мм.
Облачность - указаны через наклонную черту общая и нижняя облачность в баллах и высота нижней границы облаков в метрах; квадратными скобками обозначены формы облаков: Ci - перистые, Cs - перисто-слоистые, Cc - перисто-кучевые, Ac - высококучевые, As - высокослоистые, Sc - слоисто-кучевые, Ns - слоисто-дождевые, Cu - кучевые, Cb - кучево-дождевые. Подробнее классификацию облаков см. в Атласе облаков (PDF).
T - Температура воздуха - температура, измеренная на высоте 2 м над землей.
Td - Температура точки росы - температура, при понижении до которой содержащийся в воздухе водяной пар достигнет насыщения.
f - Относительная влажность воздуха - влажноcть воздуха, измеренная на высоте 2 м над землей.
Te - Эффективная температура - температура, которую ощущает одетый по сезону человек в тени. Характеристика душности погоды. При расчете учитывается влияние влажности воздуха и скорости ветра на теплоощущения человека.
Tes - Эффективная температура на солнце - температура, которую ощущает человек, с поправкой на солнечный нагрев. Характеристика знойности погоды. Зависит от высоты солнца над горизонтом, облачности и скорости ветра. Ночью, в пасмурную погоду, а также при ветре 12 м/с и более поправка равна нулю.
P - Атмосферное давление - приведенное к уровню моря атмосферное давление.
Po - Атмосферное давление - измеренное на уровне метеостанции атмосферное давление.
Tmin - Минимальная температура - минимум температуры воздуха на высоте 2 м над землей.
Tmax - Максимальная температура - максимум температуры воздуха на высоте 2 м над землей.
R - Количество осадков - Количество выпавших осадков за период времени, мм. При наведении курсора мыши на число - период времени, за который выпало указанное количество осадков.
R24 - Количество осадков - Количество выпавших осадков за 24 часа, мм.
S - Снежный покров - Высота снежного покрова, см. При наведении курсора мыши на число - состояние снежного покрова и степень покрытия местности в баллах.